TimeCST,TemperatureF,Dew PointF,Humidity,Sea Level PressureIn,VisibilityMPH,Wind Direction,Wind SpeedMPH,Gust SpeedMPH,PrecipitationIn,Events,Conditions,WindDirDegrees,DateUTC
12:15 AM,34.7,25.9,70,30.06,10.0,SSW,17.3,21.9,N/A,,Clear,210,2012-12-31 06:15:00
12:35 AM,35.1,25.7,69,30.05,10.0,SW,18.4,21.9,N/A,,Clear,220,2012-12-31 06:35:00
12:55 AM,35.2,25.7,68,30.05,10.0,SW,17.3,21.9,N/A,,Clear,220,2012-12-31 06:55:00
1:15 AM,35.8,25.2,65,30.05,10.0,SW,19.6,24.2,N/A,,Clear,220,2012-12-31 07:15:00
1:35 AM,36.0,25.3,65,30.05,10.0,SW,19.6,24.2,N/A,,Clear,230,2012-12-31 07:35:00
1:55 AM,36.0,25.0,64,30.05,10.0,SW,18.4,-,N/A,,Clear,230,2012-12-31 07:55:00
2:15 AM,35.8,24.8,64,30.06,10.0,SW,19.6,-,N/A,,Clear,230,2012-12-31 08:15:00
2:35 AM,35.6,24.8,65,30.05,10.0,SW,17.3,24.2,N/A,,Clear,230,2012-12-31 08:35:00
2:55 AM,35.6,24.8,65,30.05,10.0,SW,16.1,-,N/A,,Clear,230,2012-12-31 08:55:00
3:15 AM,35.6,24.8,65,30.05,10.0,SW,17.3,21.9,N/A,,Clear,230,2012-12-31 09:15:00
3:35 AM,35.6,24.8,65,30.06,10.0,SW,16.1,25.3,N/A,,Clear,230,2012-12-31 09:35:00
3:55 AM,35.6,24.8,65,30.06,10.0,SW,16.1,-,N/A,,Clear,230,2012-12-31 09:55:00
4:15 AM,35.6,24.8,65,30.05,10.0,WSW,16.1,24.2,N/A,,Clear,240,2012-12-31 10:15:00
4:35 AM,36.0,24.8,64,30.05,10.0,WSW,17.3,23.0,N/A,,Scattered Clouds,240,2012-12-31 10:35:00
4:55 AM,36.0,24.8,64,30.04,10.0,WSW,16.1,23.0,N/A,,Overcast,240,2012-12-31 10:55:00
5:15 AM,35.8,24.8,64,30.04,10.0,WSW,13.8,-,N/A,,Scattered Clouds,250,2012-12-31 11:15:00
5:35 AM,35.6,25.2,66,30.03,10.0,WSW,12.7,-,N/A,,Clear,250,2012-12-31 11:35:00
5:55 AM,35.6,25.0,65,30.03,10.0,WSW,15.0,20.7,N/A,,Clear,240,2012-12-31 11:55:00
6:15 AM,35.6,25.3,66,30.03,10.0,WSW,13.8,19.6,N/A,,Clear,250,2012-12-31 12:15:00
6:35 AM,35.6,25.3,66,30.04,10.0,WSW,13.8,-,N/A,,Clear,250,2012-12-31 12:35:00
6:55 AM,36.0,25.3,65,30.05,10.0,WSW,17.3,-,N/A,,Scattered Clouds,250,2012-12-31 12:55:00
7:15 AM,35.8,25.5,66,30.05,10.0,WSW,12.7,19.6,N/A,,Mostly Cloudy,250,2012-12-31 13:15:00
7:35 AM,35.6,25.7,67,30.05,10.0,WSW,16.1,20.7,N/A,,Overcast,250,2012-12-31 13:35:00
7:55 AM,35.6,26.1,68,30.05,10.0,West,11.5,-,N/A,,Mostly Cloudy,260,2012-12-31 13:55:00
8:15 AM,35.1,26.4,71,30.05,10.0,West,13.8,-,N/A,,Mostly Cloudy,260,2012-12-31 14:15:00
8:35 AM,34.7,26.8,73,30.05,10.0,West,15.0,-,N/A,,Mostly Cloudy,270,2012-12-31 14:35:00
8:55 AM,34.3,27.1,75,30.05,10.0,West,12.7,16.1,N/A,,Scattered Clouds,280,2012-12-31 14:55:00
9:15 AM,33.1,25.0,72,30.06,10.0,West,15.0,-,N/A,,Scattered Clouds,280,2012-12-31 15:15:00
9:35 AM,32.9,25.2,73,30.07,10.0,West,15.0,-,N/A,,Scattered Clouds,270,2012-12-31 15:35:00
9:55 AM,32.5,25.3,75,30.07,10.0,West,9.2,-,N/A,,Mostly Cloudy,280,2012-12-31 15:55:00
10:15 AM,32.0,25.5,77,30.08,10.0,West,11.5,-,N/A,,Overcast,280,2012-12-31 16:15:00
10:35 AM,31.8,23.2,70,30.09,10.0,West,11.5,-,N/A,,Overcast,280,2012-12-31 16:35:00
10:55 AM,31.6,23.5,72,30.08,10.0,West,12.7,18.4,N/A,,Mostly Cloudy,280,2012-12-31 16:55:00
11:15 AM,31.1,23.9,75,30.08,10.0,West,12.7,18.4,N/A,,Scattered Clouds,280,2012-12-31 17:15:00
11:35 AM,30.2,23.0,75,30.08,10.0,West,15.0,18.4,N/A,,Overcast,270,2012-12-31 17:35:00
11:55 AM,29.7,22.8,76,30.08,10.0,West,12.7,-,N/A,,Overcast,280,2012-12-31 17:55:00
12:15 PM,29.1,22.6,77,30.06,10.0,WNW,11.5,-,N/A,,Overcast,290,2012-12-31 18:15:00
12:35 PM,28.8,22.6,78,30.06,10.0,West,13.8,18.4,N/A,,Overcast,280,2012-12-31 18:35:00
12:55 PM,28.0,21.2,76,30.06,10.0,West,13.8,18.4,N/A,,Overcast,280,2012-12-31 18:55:00
1:15 PM,28.0,21.7,77,30.05,10.0,WNW,12.7,17.3,N/A,,Overcast,290,2012-12-31 19:15:00
1:35 PM,27.9,21.4,77,30.05,10.0,WNW,10.4,-,N/A,,Overcast,290,2012-12-31 19:35:00
1:55 PM,27.5,21.2,77,30.06,10.0,WNW,15.0,-,N/A,,Overcast,300,2012-12-31 19:55:00
2:15 PM,27.1,21.0,78,30.06,10.0,WNW,12.7,-,N/A,,Overcast,300,2012-12-31 20:15:00
2:35 PM,26.2,20.1,78,30.06,10.0,WNW,13.8,-,N/A,,Mostly Cloudy,300,2012-12-31 20:35:00
2:55 PM,26.1,19.9,78,30.06,10.0,WNW,12.7,-,N/A,,Mostly Cloudy,300,2012-12-31 20:55:00
3:15 PM,25.7,19.8,78,30.08,10.0,WNW,12.7,-,N/A,,Overcast,290,2012-12-31 21:15:00
3:35 PM,24.6,18.0,76,30.07,10.0,WNW,15.0,-,N/A,,Overcast,300,2012-12-31 21:35:00
3:55 PM,24.3,17.8,76,30.08,10.0,NW,11.5,-,N/A,,Overcast,310,2012-12-31 21:55:00
4:15 PM,23.9,18.0,78,30.07,10.0,WNW,11.5,-,N/A,,Overcast,300,2012-12-31 22:15:00
4:35 PM,23.0,17.2,79,30.08,10.0,WNW,11.5,-,N/A,,Overcast,300,2012-12-31 22:35:00
4:55 PM,23.0,17.4,79,30.08,10.0,WNW,10.4,-,N/A,,Overcast,290,2012-12-31 22:55:00
5:15 PM,22.6,16.7,78,30.08,10.0,WNW,11.5,-,N/A,,Overcast,300,2012-12-31 23:15:00
5:35 PM,21.9,16.7,80,30.09,10.0,WNW,9.2,-,N/A,,Scattered Clouds,290,2012-12-31 23:35:00
5:55 PM,21.9,16.7,80,30.09,10.0,WNW,8.1,-,N/A,,Mostly Cloudy,300,2012-12-31 23:55:00
6:15 PM,21.6,16.5,81,30.11,10.0,WNW,9.2,-,N/A,,Scattered Clouds,290,2013-01-01 00:15:00
6:35 PM,21.2,16.5,82,30.12,10.0,WNW,9.2,-,N/A,,Clear,290,2013-01-01 00:35:00
6:55 PM,21.4,16.7,82,30.11,10.0,WNW,11.5,-,N/A,,Mostly Cloudy,300,2013-01-01 00:55:00
7:15 PM,21.2,16.5,82,30.12,10.0,WNW,6.9,-,N/A,,Overcast,290,2013-01-01 01:15:00
7:35 PM,21.2,16.3,82,30.11,10.0,WNW,8.1,-,N/A,,Mostly Cloudy,300,2013-01-01 01:35:00
7:55 PM,21.2,16.5,82,30.11,10.0,NW,9.2,-,N/A,,Scattered Clouds,310,2013-01-01 01:55:00
8:15 PM,21.2,16.7,83,30.12,10.0,NW,8.1,-,N/A,,Mostly Cloudy,310,2013-01-01 02:15:00
8:35 PM,21.4,16.9,83,30.11,10.0,NW,8.1,-,N/A,,Overcast,310,2013-01-01 02:35:00
8:55 PM,21.9,17.4,83,30.12,10.0,NW,8.1,-,N/A,,Overcast,320,2013-01-01 02:55:00
9:15 PM,22.1,17.4,82,30.13,10.0,NW,6.9,-,N/A,,Overcast,320,2013-01-01 03:15:00
9:35 PM,22.5,17.1,80,30.12,10.0,NNW,9.2,-,N/A,,Overcast,340,2013-01-01 03:35:00
9:55 PM,22.6,16.7,78,30.14,10.0,NNW,10.4,-,N/A,,Overcast,330,2013-01-01 03:55:00
10:15 PM,22.8,16.5,77,30.14,10.0,NNW,6.9,-,N/A,,Overcast,330,2013-01-01 04:15:00
10:35 PM,22.6,16.2,76,30.15,10.0,NNW,8.1,-,N/A,,Overcast,340,2013-01-01 04:35:00
10:55 PM,22.6,15.8,75,30.15,10.0,NNW,12.7,-,N/A,,Overcast,340,2013-01-01 04:55:00
11:15 PM,22.6,15.8,75,30.15,10.0,North,11.5,-,N/A,,Overcast,350,2013-01-01 05:15:00
11:35 PM,22.6,16.2,76,30.14,10.0,North,11.5,-,N/A,,Overcast,360,2013-01-01 05:35:00
11:55 PM,22.1,15.4,76,30.14,10.0,North,11.5,-,N/A,,Overcast,360,2013-01-01 05:55:00